[[{"header":{"parameterUnit":"m.s-1","parameterCategory":1,"la1":30.2991,"la2":30.254,"lo1":-89.0895,"lo2":-89.0444,"dy":0.0017,"dx":0.0017,"nx":28,"ny":28,"refTime":"2025-01-22T09:00:00:Z","depth":0,"parameterNumber":2,"parameterNumberName":"U-component_of_WINDS"},"data":[0,0,0,0,0,0,0,0,0,0,0,0,0,0,0,0,0,0,0,0,0,0,0,0,0,0,0,0,0,0,0,0,0,0,0,0,0,0,0,0,0,0,0,0,0,0,0,0,0,0,0,0,0,0,0,0,0,0,0.776,0.776,0,0.7704,0.7703,0.7703,0.7656,0.7656,0.7655,0.7655,0.7596,0.7595,0.7594,0,0,0,0,0,0,0,0,0,0,0,0,0,0.7829,0.7828,0.776,0.776,0.7759,0.7704,0.7703,0.7702,0.7657,0.7656,0.7655,0.7655,0.7597,0.7595,0.7594,0,0,0,0,0,0,0,0,0,0,0,0,0,0.7788,0.7828,0.7761,0.7729,0.7726,0.7704,0.7703,0.7702,0.7657,0.7656,0.7655,0.7655,0.7597,0.7595,0.7594,0.7598,0,0,0.7589,0.7588,0,0,0,0,0,0,0,0,0.7791,0.7786,0.7735,0.7732,0.7728,0.7687,0.7706,0.7667,0.7657,0.7683,0.7655,0.7654,0.7627,0.7623,0.7614,0.7595,0.7592,0.7588,0.7587,0.7587,0.7586,0,0,0,0,0,0,0,0.7794,0.7788,0.7738,0.7734,0.773,0.7719,0.7712,0.7698,0.766,0.7681,0.7677,0.7671,0.7625,0.7615,0.7612,0.7592,0.7588,0.7587,0.7586,0.7585,0.7575,0.7576,0,0,0,0,0,0,0.7801,0.7791,0.774,0.7736,0.7758,0.7718,0.7711,0.77,0.766,0.7653,0.7672,0.7669,0.7619,0.7614,0.761,0.7612,0.7587,0.7585,0.7584,0.7575,0.7576,0.7576,0,0,0,0,0,0,0.7803,0.7797,0.7742,0.7763,0.7755,0.7717,0.7707,0.77,0.769,0.7653,0.7646,0.7669,0.7618,0.7612,0.7602,0.761,0.7584,0.7583,0.7574,0.7575,0.7576,0.7618,0,0,0,0,0,0,0.7805,0.7798,0.7799,0.7763,0.7754,0.7735,0.7707,0.7699,0.7688,0.7684,0.7649,0.7642,0.7617,0.7604,0.76,0.7607,0.7582,0.7573,0.7574,0.7576,0.7616,0.762,0.7624,0,0,0,0,0,0.7808,0.7812,0.7799,0.7793,0.7754,0.7735,0.773,0.7701,0.7688,0.7689,0.7666,0.7643,0.761,0.7604,0.7598,0.7605,0.7572,0.7574,0.7576,0.7614,0.7619,0.7624,0,0,0,0,0,0,0.7849,0.7807,0.7792,0.7785,0.7764,0.7728,0.7727,0.7708,0.769,0.7687,0.7651,0.7644,0.7638,0.762,0.7614,0.7608,0.7588,0.7589,0.7619,0.7624,0.7628,0.7632,0.758,0,0,0,0,0,0.7858,0.7846,0.781,0.7807,0.7798,0.7765,0.7755,0.7735,0.7712,0.7703,0.7678,0.7657,0.7641,0.7632,0.7616,0.7613,0.7606,0.7616,0.762,0.7624,0.7624,0.7623,0.7628,0.7582,0.7582,0.7582,0,0,0.7874,0.785,0.7845,0.7815,0.7796,0.7786,0.7757,0.7746,0.7738,0.7701,0.769,0.7672,0.7645,0.7639,0.7635,0.7625,0.7636,0.7626,0.7629,0.7628,0.7626,0.763,0.7634,0.7583,0.7583,0.7583,0,0,0.79,0.788,0.7876,0.7859,0.7832,0.781,0.781,0.7777,0.7763,0.7752,0.7724,0.7714,0.7688,0.7671,0.7659,0.7681,0.766,0.7677,0.7699,0.7698,0.7702,0.7705,0.7713,0.7717,0.7678,0.7678,0.7678,0,0.7924,0.7906,0.7877,0.7868,0.7856,0.7824,0.782,0.7804,0.7773,0.7766,0.7755,0.7723,0.7703,0.7693,0.7699,0.769,0.7689,0.768,0.7704,0.7707,0.7709,0.7717,0.772,0.768,0.768,0.768,0.7679,0,0.7938,0.7927,0.7927,0.7899,0.7887,0.7881,0.7851,0.7843,0.7825,0.7805,0.7794,0.7769,0.7748,0.7745,0.7726,0.7733,0.7727,0.7711,0.769,0.7716,0.7723,0.7725,0.7683,0.7682,0.7682,0.7681,0,0,0.7986,0.7943,0.7944,0.7931,0.79,0.7891,0.7884,0.7864,0.7858,0.7839,0.7833,0.7813,0.7798,0.7784,0.7764,0.7763,0.7784,0.7747,0.7746,0.7755,0.7791,0.7803,0.7807,0.777,0.7771,0.7771,0.7793,0,0.8006,0.7992,0.7966,0.796,0.795,0.792,0.7914,0.7895,0.7877,0.7866,0.7845,0.7832,0.7813,0.7805,0.7803,0.7781,0.779,0.778,0.7764,0.7764,0.7771,0.781,0.7823,0.7845,0.7795,0.7796,0.7796,0,0.8027,0.801,0.8004,0.7975,0.797,0.7965,0.7946,0.7936,0.7914,0.7901,0.7887,0.7865,0.7857,0.784,0.7829,0.7822,0.7815,0.7803,0.7804,0.78,0.7781,0.7808,0.7851,0.7854,0.78,0.7799,0.7799,0,0.8063,0.8039,0.8032,0.8022,0.7989,0.7987,0.7972,0.795,0.794,0.7924,0.7917,0.79,0.7891,0.7878,0.7853,0.7842,0.7845,0.7825,0.7834,0.7835,0.7835,0.7835,0.7877,0.7831,0.7831,0.7831,0.7831,0,0.8088,0.8085,0.8048,0.8044,0.804,0.8012,0.8009,0.7992,0.7973,0.7966,0.7939,0.7933,0.79,0.789,0.787,0.7864,0.786,0.785,0.7844,0.7852,0.7853,0.7846,0.7843,0.7832,0.7832,0.7831,0.7831,0,0.8126,0.8101,0.8092,0.8062,0.8055,0.8054,0.8028,0.8023,0.8004,0.7995,0.7992,0.7962,0.7949,0.7923,0.7903,0.789,0.7889,0.7879,0.7896,0.7893,0.7904,0.7903,0.7942,0.7946,0.7898,0.7898,0.7899,0,0.8143,0.8141,0.8111,0.8105,0.8092,0.8081,0.8072,0.8044,0.8036,0.8012,0.8011,0.7996,0.7982,0.7964,0.794,0.7925,0.7915,0.793,0.7913,0.7921,0.7916,0.7916,0.7916,0.7934,0.7934,0.7935,0.7935,0,0.8177,0.8165,0.8153,0.8137,0.8127,0.8112,0.8097,0.8093,0.8062,0.8054,0.8041,0.8031,0.8011,0.7997,0.7979,0.7965,0.7945,0.7941,0.7943,0.795,0.796,0.7955,0.7907,0.794,0.794,0.7939,0.7939,0.7939,0.8205,0.8202,0.8181,0.8169,0.8154,0.8141,0.8136,0.8117,0.8106,0.8088,0.8073,0.8061,0.8042,0.8015,0.8003,0.7994,0.7984,0.7986,0.7987,0.7987,0.7991,0.7962,0.7991,0.7991,0.799,0.799,0.799,0,0.8237,0.8223,0.8212,0.8191,0.8182,0.8166,0.8148,0.8142,0.8132,0.8116,0.8104,0.809,0.8077,0.8054,0.8039,0.8037,0.8027,0.8034,0.8033,0.803,0.8,0.8001,0.8041,0.8041,0.8041,0.8041,0.8041,0.8041,0.8252,0.8247,0.8233,0.8221,0.8206,0.8196,0.8187,0.8175,0.8162,0.8148,0.8137,0.8123,0.8104,0.8088,0.8076,0.8069,0.8065,0.8074,0.8065,0.8037,0.8032,0.8028,0.8028,0.8074,0.8074,0.8096,0.8096,0.8097]},{"header":{"parameterUnit":"m.s-1","parameterCategory":1,"la1":30.2991,"la2":30.254,"lo1":-89.0895,"lo2":-89.0444,"dy":0.0017,"dx":0.0017,"nx":28,"ny":28,"refTime":"2025-01-22T09:00:00:Z","depth":0,"parameterNumber":3,"parameterNumberName":"V-component_of_WINDS"},"data":[0,0,0,0,0,0,0,0,0,0,0,0,0,0,0,0,0,0,0,0,0,0,0,0,0,0,0,0,0,0,0,0,0,0,0,0,0,0,0,0,0,0,0,0,0,0,0,0,0,0,0,0,0,0,0,0,0,0,-4.2709,-4.2711,0,-4.2865,-4.2867,-4.2868,-4.2825,-4.2822,-4.2818,-4.2815,-4.2971,-4.2978,-4.2985,0,0,0,0,0,0,0,0,0,0,0,0,0,-4.2369,-4.2375,-4.2709,-4.2711,-4.2713,-4.2865,-4.2867,-4.2869,-4.2825,-4.2822,-4.2818,-4.2814,-4.2969,-4.2977,-4.2986,0,0,0,0,0,0,0,0,0,0,0,0,0,-4.252,-4.2378,-4.2708,-4.2709,-4.2711,-4.2864,-4.2867,-4.2869,-4.2826,-4.2821,-4.2817,-4.2812,-4.2966,-4.2976,-4.2987,-4.3147,0,0,-4.3019,-4.3024,0,0,0,0,0,0,0,0,-4.2511,-4.2532,-4.2707,-4.271,-4.2712,-4.2821,-4.2804,-4.2962,-4.2827,-4.2782,-4.2815,-4.281,-4.2925,-4.2938,-4.2978,-4.3155,-4.3161,-4.302,-4.3027,-4.3031,-4.3034,0,0,0,0,0,0,0,-4.2501,-4.2525,-4.277,-4.271,-4.2713,-4.2701,-4.2717,-4.2834,-4.2878,-4.2786,-4.2783,-4.2802,-4.2925,-4.2968,-4.2981,-4.3163,-4.302,-4.3029,-4.3036,-4.304,-4.3479,-4.3484,0,0,0,0,0,0,-4.2489,-4.2517,-4.2765,-4.2775,-4.2598,-4.2711,-4.2729,-4.279,-4.2877,-4.2885,-4.2806,-4.28,-4.2952,-4.2969,-4.2986,-4.318,-4.3031,-4.3041,-4.3047,-4.3473,-4.348,-4.3485,0,0,0,0,0,0,-4.2482,-4.2512,-4.2759,-4.2645,-4.2676,-4.2722,-4.2791,-4.2796,-4.2839,-4.2892,-4.2899,-4.2842,-4.2949,-4.2972,-4.3108,-4.3184,-4.3046,-4.3056,-4.3467,-4.3475,-4.3483,-4.3568,0,0,0,0,0,0,-4.2473,-4.251,-4.2572,-4.2647,-4.2682,-4.288,-4.2796,-4.2802,-4.2858,-4.2851,-4.2928,-4.2936,-4.2947,-4.3092,-4.3118,-4.3197,-4.3064,-4.346,-4.3471,-4.348,-4.3558,-4.3577,-4.3594,0,0,0,0,0,-4.2461,-4.2589,-4.2576,-4.2606,-4.2762,-4.2884,-4.2904,-4.2915,-4.2864,-4.2927,-4.2961,-4.2934,-4.3172,-4.3106,-4.3136,-4.3218,-4.3456,-4.3468,-4.3479,-4.355,-4.3574,-4.3594,0,0,0,0,0,0,-4.2521,-4.2599,-4.2585,-4.2742,-4.2807,-4.2876,-4.2956,-4.294,-4.3019,-4.3009,-4.3018,-4.3036,-4.3175,-4.321,-4.3136,-4.3377,-4.3306,-4.3324,-4.335,-4.3373,-4.339,-4.3379,-4.3073,0,0,0,0,0,-4.2553,-4.2647,-4.2709,-4.2842,-4.2875,-4.291,-4.2964,-4.2967,-4.3034,-4.3061,-4.3105,-4.317,-4.3259,-4.3318,-4.3403,-4.3563,-4.3578,-4.3634,-4.3652,-4.3666,-4.3682,-4.3768,-4.3793,-4.3524,-4.3524,-4.3524,0,0,-4.2619,-4.2673,-4.2732,-4.2855,-4.2906,-4.3002,-4.2933,-4.3038,-4.3109,-4.3076,-4.3208,-4.3242,-4.3315,-4.3464,-4.3532,-4.3497,-4.3759,-4.3681,-4.3692,-4.37,-4.3783,-4.3808,-4.3831,-4.3532,-4.3531,-4.353,0,0,-4.2789,-4.284,-4.2955,-4.3008,-4.3086,-4.3108,-4.3136,-4.3208,-4.323,-4.3363,-4.334,-4.3423,-4.3577,-4.363,-4.3677,-4.3867,-4.3844,-4.3894,-4.3987,-4.4071,-4.4093,-4.4111,-4.4178,-4.4202,-4.3909,-4.3909,-4.391,0,-4.2861,-4.3006,-4.3016,-4.3123,-4.3178,-4.3154,-4.327,-4.332,-4.3421,-4.3459,-4.3419,-4.3612,-4.3659,-4.3819,-4.3866,-4.3905,-4.3936,-4.3885,-4.4089,-4.4108,-4.4126,-4.419,-4.4215,-4.3915,-4.3914,-4.3914,-4.3913,0,-4.309,-4.3191,-4.3275,-4.3375,-4.3439,-4.355,-4.3576,-4.3639,-4.3636,-4.3662,-4.3796,-4.3853,-4.3949,-4.3987,-4.3985,-4.4147,-4.4123,-4.4086,-4.4015,-4.4157,-4.4217,-4.4242,-4.3923,-4.3921,-4.3919,-4.3918,0,0,-4.3303,-4.3407,-4.3438,-4.3482,-4.3566,-4.3644,-4.3753,-4.3848,-4.3902,-4.3972,-4.4063,-4.4194,-4.4161,-4.4214,-4.4217,-4.4291,-4.4437,-4.4245,-4.4247,-4.4279,-4.4619,-4.4646,-4.4674,-4.4423,-4.4427,-4.4431,-4.4612,0,-4.348,-4.3674,-4.3686,-4.3861,-4.3954,-4.3932,-4.4027,-4.4088,-4.4115,-4.4196,-4.4225,-4.4318,-4.4267,-4.4299,-4.4371,-4.4404,-4.4505,-4.4391,-4.4506,-4.451,-4.4489,-4.4706,-4.4735,-4.4903,-4.4636,-4.464,-4.4643,0,-4.3712,-4.3791,-4.3976,-4.4046,-4.4086,-4.4171,-4.4259,-4.4337,-4.4406,-4.442,-4.448,-4.4472,-4.4583,-4.4508,-4.4659,-4.4581,-4.4629,-4.4652,-4.4659,-4.467,-4.4585,-4.4722,-4.4957,-4.4982,-4.468,-4.4677,-4.4674,0,-4.3848,-4.4,-4.4131,-4.417,-4.4255,-4.4315,-4.4354,-4.4417,-4.4473,-4.455,-4.4586,-4.4673,-4.4721,-4.4789,-4.4805,-4.4748,-4.4956,-4.4882,-4.497,-4.497,-4.5015,-4.5012,-4.5261,-4.5046,-4.5046,-4.5045,-4.5045,0,-4.4045,-4.4159,-4.4193,-4.4273,-4.4399,-4.4411,-4.4536,-4.457,-4.4626,-4.4711,-4.4697,-4.4777,-4.4793,-4.4876,-4.4889,-4.5013,-4.5034,-4.5048,-4.505,-4.505,-4.5048,-4.5081,-4.507,-4.5052,-4.505,-4.5049,-4.5048,0,-4.4218,-4.4246,-4.4387,-4.4456,-4.4476,-4.4566,-4.4625,-4.4701,-4.4726,-4.4834,-4.486,-4.4899,-4.4995,-4.5018,-4.5133,-4.5142,-4.5288,-4.5278,-4.5265,-4.5264,-4.5351,-4.5343,-4.563,-4.5668,-4.5428,-4.5431,-4.5432,0,-4.4342,-4.4429,-4.4508,-4.4565,-4.4606,-4.4697,-4.4755,-4.477,-4.483,-4.4914,-4.4979,-4.5075,-4.5152,-4.5307,-4.5345,-4.5432,-4.5425,-4.5519,-4.5438,-4.5434,-4.5426,-4.5421,-4.5429,-4.5535,-4.5537,-4.5539,-4.5541,0,-4.4558,-4.4568,-4.4652,-4.4741,-4.481,-4.4881,-4.4948,-4.4995,-4.5018,-4.5086,-4.5186,-4.5246,-4.5364,-4.5458,-4.5546,-4.5583,-4.5566,-4.5567,-4.5591,-4.5592,-4.558,-4.5587,-4.5307,-4.556,-4.5558,-4.5557,-4.5556,-4.5555,-4.4711,-4.4787,-4.4855,-4.4948,-4.5001,-4.5064,-4.5139,-4.5173,-4.5257,-4.5355,-4.5358,-4.5466,-4.553,-4.5647,-4.569,-4.5773,-4.5744,-4.578,-4.5789,-4.5798,-4.5806,-4.5567,-4.5789,-4.5789,-4.5788,-4.5788,-4.5787,0,-4.4926,-4.4968,-4.5055,-4.515,-4.5223,-4.5202,-4.5275,-4.5338,-4.5433,-4.5496,-4.5572,-4.5686,-4.5777,-4.5822,-4.5912,-4.597,-4.5965,-4.5993,-4.5989,-4.5998,-4.5827,-4.5796,-4.5996,-4.5996,-4.5996,-4.5996,-4.5996,-4.5996,-4.5047,-4.5175,-4.5192,-4.5345,-4.5386,-4.5493,-4.5536,-4.5594,-4.5644,-4.5772,-4.5848,-4.5877,-4.5932,-4.6026,-4.6108,-4.6119,-4.6152,-4.6185,-4.6192,-4.6031,-4.601,-4.599,-4.5961,-4.6192,-4.6193,-4.6356,-4.6357,-4.6359]}]]